EHI
1 0 0 0 1 0 0 0 0 0 0 0 0 0 0 0 0 0 0 0 0 0 0 0 0 0 0 0 0 0 0 0 0 0 0 0 0 0 0 0 0 0 0
2 1 0 1 1 1 0 0 0 0 0 0 0 0 0 0 0 0 0 0 0 0 0 0 0 0 0 0 0 0 0 0 0 0 0 0 0 0 0 0 0 0 0
2 1 0 1 1 1 0 0 0 0 0 0 0 0 0 0 0 0 0 0 0 0 0 0 0 0 0 0 0 0 0 0 0 0 0 0 0 0 0 0 0 0 0
2 2 2 1 1 0 0 1 1 0 0 0 0 0 0 0 0 0 0 0 0 0 0 0 0 0 0 0 0 0 0 0 0 0 0 0 0 0 0 0 0 0 0
1 1 3 3 1 0 0 1 1 1 0 1 0 0 0 0 0 0 0 0 0 0 0 0 0 0 0 0 0 0 0 0 0 0 0 0 0 0 0 0 0 0 0
0 0 2 2 1 0 0 1 2 1 0 0 0 0 0 0 0 0 0 0 0 0 0 0 1 0 0 0 0 0 0 0 0 0 0 0 0 0 0 0 0 0 0
0 0 1 2 2 1 0 1 2 2 0 0 0 0 0 0 0 0 0 0 0 0 0 0 0 0 0 0 0 0 0 0 0 0 0 0 0 0 0 0 0 0 0
1 0 1 2 3 2 1 2 3 3 1 0 0 0 0 0 0 0 0 0 0 0 0 0 0 0 0 0 0 0 0 0 0 0 0 0 0 0 0 0 0 0 0
1 0 1 2 2 2 2 3 4 4 2 1 1 0 0 0 0 0 0 0 0 0 0 0 0 0 0 1 1 1 1 0 0 0 0 0 0 0 0 0 0 0 0
1 1 2 2 2 1 2 2 2 3 4 3 2 1 0 0 0 0 0 0 0 0 0 0 0 0 0 1 1 1 0 0 0 0 0 0 0 0 0 0 0 0 0
3 3 4 4 3 1 1 0 1 3 4 5 4 2 1 0 0 0 0 0 0 0 0 0 0 0 0 0 1 1 0 0 0 0 0 0 0 0 0 0 0 0 0
4 5 6 7 6 3 2 1 2 3 4 4 4 3 1 0 0 0 0 0 0 0 0 0 0 0 0 0 0 1 0 0 0 0 0 0 0 0 0 0 0 0 0
3 4 4 6 7 6 5 5 4 4 4 3 4 3 1 1 1 1 0 0 0 0 0 0 0 0 0 0 0 0 0 0 0 0 0 0 0 0 0 0 0 0 0
1 1 2 2 5 7 9 10 9 7 5 4 3 3 2 1 2 2 1 1 1 0 0 0 0 0 1 1 0 0 0 0 0 0 0 0 0 0 0 0 0 0 0
0 0 0 0 3 8 10 12 13 11 8 5 4 4 3 2 2 2 2 3 4 2 1 0 0 1 2 2 0 0 0 0 0 0 0 0 0 0 0 0 0 0 0
1 0 0 1 4 8 11 11 13 13 11 8 7 5 4 5 5 4 4 6 7 7 4 1 0 2 3 2 1 1 0 0 0 0 0 0 0 0 0 0 0 0 0
2 1 1 2 4 7 9 10 10 10 10 10 9 7 6 8 9 8 7 7 8 9 6 3 1 2 4 4 3 2 1 0 0 0 0 0 0 0 0 0 0 0 0
5 4 5 5 4 5 8 9 9 8 8 9 9 8 8 9 11 12 10 7 6 6 5 4 2 2 4 4 4 3 1 0 0 0 0 0 0 0 0 0 0 0 0
7 7 7 6 5 4 6 8 8 7 8 8 9 9 9 9 10 11 10 7 4 3 4 4 2 2 2 3 3 2 1 1 0 0 0 0 0 0 0 0 0 0 0
9 9 9 7 5 5 6 7 8 8 8 9 9 8 8 7 7 7 7 7 4 4 4 4 3 1 2 2 2 1 1 1 1 1 1 0 0 0 0 0 0 0 0
9 10 11 9 7 6 5 5 6 7 9 9 8 7 5 4 3 3 4 4 4 4 4 3 2 1 1 2 2 1 1 1 1 2 2 1 0 0 0 0 0 0 0
8 9 10 10 8 4 2 2 3 5 7 8 8 6 3 1 1 1 1 1 2 2 2 2 1 0 1 2 3 2 1 1 2 4 4 2 1 1 0 0 0 0 0
9 9 8 8 6 3 0 0 1 2 4 6 7 6 3 1 0 0 0 0 0 0 1 1 0 0 1 3 3 3 4 3 4 6 5 4 4 3 1 0 0 0 0
11 9 6 5 4 2 0 0 0 1 3 5 6 5 3 2 0 0 0 0 0 0 0 0 0 0 1 2 3 4 5 6 5 4 4 3 4 3 1 0 0 0 0
10 8 5 4 4 3 1 0 1 3 5 6 4 3 2 1 0 0 0 0 0 0 0 0 0 0 0 1 1 2 3 3 2 2 1 1 1 1 0 0 0 0 0
9 7 6 5 5 4 1 0 1 3 5 5 4 2 1 0 0 0 0 0 0 0 0 0 0 0 0 0 0 1 1 1 0 1 1 1 0 0 0 0 0 0 0
Wind_Speed
5 5 3 3 4 4 5 4 3 4 3 4 3 3 2 2 2 2 6 9 7 7 7 8 8 7 7 7 7 6 6 7 7 6 6 6 7 6 6 6 6 6 5
5 5 5 4 4 4 4 4 4 4 4 3 3 3 3 3 3 2 4 8 9 8 8 8 8 8 7 8 7 7 7 7 7 7 6 6 6 6 6 6 6 6 5
6 5 5 5 4 4 4 4 4 4 4 4 4 3 3 2 3 3 3 4 8 10 9 8 8 8 8 8 8 8 8 8 8 8 7 7 7 7 7 7 6 6 6
7 6 5 5 5 5 5 4 5 5 4 3 3 3 2 3 3 4 4 4 4 6 10 10 9 8 8 8 9 9 9 9 8 9 9 9 9 8 8 8 8 7 7
8 7 5 4 6 5 5 5 5 4 4 3 3 3 3 3 4 4 4 5 5 4 5 11 10 9 9 9 9 9 9 9 9 9 10 10 10 9 9 9 8 8 8
8 7 6 6 7 5 5 4 3 3 3 4 4 2 3 3 4 4 5 5 5 6 6 6 8 10 11 10 10 10 10 10 10 10 10 10 10 10 10 10 10 9 10
9 8 6 7 7 6 6 6 5 6 5 3 3 3 4 5 4 4 5 4 5 5 5 5 5 5 7 12 11 10 11 11 11 10 10 10 10 10 10 11 11 10 10
9 9 9 7 8 6 7 7 6 5 4 4 4 3 3 4 5 5 4 5 6 5 6 7 6 5 5 5 8 12 11 11 11 11 11 10 10 10 10 11 11 11 11
11 10 10 8 7 8 7 7 7 8 5 5 4 4 3 2 2 4 5 5 5 5 6 5 7 7 7 5 6 12 12 10 11 11 10 10 10 10 10 10 11 11 11
11 11 10 10 9 8 7 8 8 6 6 5 5 4 4 3 3 2 5 6 6 6 6 5 6 7 7 7 5 5 10 10 11 11 11 10 10 10 10 11 11 11 11
10 11 11 10 9 8 8 8 6 8 6 6 5 5 5 4 6 4 3 3 5 5 6 7 5 5 6 7 6 7 11 10 10 10 10 10 10 10 11 11 12 12 11
8 11 11 10 10 9 8 8 8 9 7 6 5 5 5 5 6 5 5 5 4 4 5 5 6 6 6 7 7 7 10 10 10 10 10 9 10 11 11 11 12 12 12
8 10 10 9 9 9 9 9 9 8 8 8 7 6 6 6 5 5 5 4 3 3 4 5 6 6 6 6 5 9 9 10 10 10 10 10 10 10 11 11 12 12 12
8 9 10 10 10 9 10 9 8 9 7 8 9 7 6 6 5 5 5 5 5 5 5 6 4 6 5 5 4 8 8 12 11 10 10 10 10 10 10 10 11 11 11
7 9 9 9 9 9 9 9 7 8 7 8 8 8 7 6 6 5 5 5 6 6 5 5 5 5 5 4 4 7 7 9 11 10 10 10 10 10 10 10 10 10 10
7 8 9 9 9 9 9 8 7 8 8 7 5 6 6 7 5 5 6 6 6 6 6 4 4 4 3 4 6 7 7 8 10 11 10 10 10 10 10 11 11 11 11
8 8 8 8 8 8 8 8 8 7 8 7 7 7 8 7 5 6 6 6 6 6 7 6 4 3 3 6 4 5 7 7 8 12 11 10 10 10 11 11 11 12 12
8 8 8 8 8 8 7 8 8 8 8 8 8 7 8 6 7 7 5 6 6 5 7 7 5 4 5 6 5 7 7 7 7 8 11 10 10 10 11 11 11 11 11
7 8 8 8 8 7 7 7 7 7 8 7 7 7 7 6 6 6 6 6 5 6 5 7 7 4 4 4 5 6 7 5 8 6 10 11 10 10 10 11 11 11 11
7 7 7 7 7 6 6 7 7 7 6 6 5 5 5 6 6 6 5 6 6 6 5 6 6 4 4 4 4 5 5 5 6 6 5 5 8 11 11 11 11 11 10
6 6 6 6 6 5 5 5 5 5 5 5 5 5 5 3 2 3 4 4 4 5 5 5 5 5 4 3 4 5 6 5 5 5 6 6 6 7 8 11 12 10 10
4 5 5 5 4 3 3 3 3 4 4 4 4 4 4 4 3 3 2 2 3 5 5 5 4 4 4 4 4 5 6 6 6 3 5 7 6 7 6 6 4 7 9
5 4 4 4 4 3 5 3 2 3 3 3 3 3 4 3 4 4 5 5 4 3 4 6 6 5 4 4 5 6 6 7 7 6 6 8 7 7 7 4 3 5 7
5 4 4 4 4 5 5 4 2 3 2 1 1 1 1 0 1 2 2 2 2 2 2 3 3 3 3 4 5 6 7 7 8 6 5 7 7 6 6 5 3 6 7
5 5 4 4 5 5 5 3 1 2 2 2 2 3 2 1 4 3 2 2 1 1 2 2 1 1 1 2 4 6 6 6 7 5 3 6 7 7 7 7 5 7 8
5 5 6 5 5 5 5 3 0 2 3 3 3 4 6 4 4 3 1 0 0 1 1 1 2 3 3 2 4 4 5 6 6 6 3 5 7 7 7 6 5 5 6
Wind_Direction
176 162 163 167 177 160 172 187 180 165 181 181 188 174 186 156 145 150 129 157 175 185 183 182 185 187 183 180 181 182 183 178 175 176 177 176 174 173 174 175 175 176 181
173 173 177 180 181 184 181 188 181 185 202 184 197 189 205 181 151 191 159 159 179 190 194 193 192 194 192 187 191 195 197 194 191 189 190 188 185 186 190 193 194 193 193
179 192 186 189 185 184 175 196 193 201 203 197 198 201 203 210 171 193 193 171 174 184 195 199 200 201 201 198 202 206 207 206 203 202 201 199 198 200 204 208 209 208 208
192 203 201 195 182 193 191 189 203 206 203 211 200 212 198 195 202 200 193 195 199 179 181 192 202 204 207 208 211 212 212 213 212 210 208 208 208 209 212 217 218 217 216
199 207 211 193 196 203 202 210 185 215 206 216 209 203 213 203 203 207 202 204 195 206 184 168 190 203 212 216 217 215 214 214 214 215 214 215 215 215 216 221 224 224 224
203 210 209 198 206 201 204 216 183 208 229 221 237 194 222 214 216 202 215 204 202 206 206 181 186 197 206 216 220 221 218 214 215 219 221 221 221 220 220 222 225 227 229
203 211 216 196 210 205 207 204 203 198 215 209 222 221 215 217 221 214 221 220 210 211 212 200 215 205 189 201 211 220 222 219 218 219 222 224 223 223 223 224 226 227 229
205 208 216 209 207 205 208 210 211 221 207 196 221 226 222 201 210 217 210 214 220 208 209 206 205 210 234 199 186 204 218 223 223 222 223 223 224 225 225 227 228 230 231
209 216 210 215 211 213 205 210 206 213 215 206 220 240 245 228 190 187 212 216 213 215 221 208 210 210 219 220 202 194 206 217 223 226 225 221 221 224 226 230 233 232 232
214 213 213 214 217 218 208 211 207 214 219 217 204 234 270 327 278 215 199 194 202 217 229 229 217 207 214 221 207 189 193 208 218 226 230 227 224 222 225 231 235 236 235
216 216 215 214 214 220 214 219 207 219 216 225 217 210 221 226 245 261 244 215 202 208 211 221 228 222 214 222 219 199 184 202 213 224 231 233 230 229 229 233 238 239 239
213 215 215 212 214 218 212 213 213 214 226 231 236 227 220 226 229 236 245 236 228 219 212 218 225 222 221 223 218 156 179 200 212 222 229 233 234 235 235 237 241 243 243
210 210 213 211 213 212 211 210 210 220 216 218 226 231 233 241 248 248 259 258 249 229 208 221 221 223 224 222 204 167 191 202 212 220 226 230 234 237 238 239 241 244 245
214 206 209 211 211 209 210 207 214 211 211 215 224 233 243 243 244 242 250 259 254 242 217 224 220 218 224 223 185 188 207 196 209 218 224 228 232 235 238 239 239 241 244
211 206 206 208 209 209 210 207 215 214 208 212 217 216 233 239 236 243 248 253 259 262 245 206 223 214 224 225 175 221 231 192 203 215 222 228 231 234 236 238 239 241 243
213 206 204 204 206 205 205 208 210 210 211 213 222 229 232 237 231 235 240 246 254 266 272 256 226 229 237 252 191 232 241 184 202 214 221 226 232 236 237 237 238 239 242
204 203 204 202 202 204 204 206 214 206 211 213 217 218 225 240 237 234 232 238 244 250 259 263 249 229 231 264 247 245 246 238 218 201 212 223 232 237 239 239 240 240 242
199 198 199 199 203 204 202 205 214 210 210 212 216 220 225 223 228 248 247 245 247 253 259 265 263 243 226 242 249 252 252 246 252 187 197 215 226 233 237 239 241 243 244
190 191 190 194 199 202 204 206 211 213 215 216 215 218 224 225 228 233 242 248 245 240 247 258 257 261 254 248 253 249 250 258 264 212 194 206 217 226 234 238 240 242 244
182 183 185 190 194 200 205 208 207 209 213 215 215 217 222 225 231 234 235 244 252 255 246 254 259 255 253 252 260 265 259 241 259 269 256 239 216 217 226 229 233 238 241
175 174 178 183 187 189 201 204 204 203 209 212 209 213 218 216 253 255 255 246 248 253 252 251 257 261 261 265 264 271 276 279 261 265 271 262 243 239 225 220 225 232 237
156 159 167 169 167 172 128 153 205 204 205 207 208 211 207 194 199 207 260 295 291 266 269 271 269 274 285 288 295 287 287 282 278 269 274 272 270 268 263 260 219 213 229
138 138 141 141 138 107 101 115 165 210 208 212 216 221 231 196 194 210 199 204 221 236 263 276 281 290 291 296 292 283 284 289 290 297 290 280 276 275 274 274 189 219 238
122 124 126 127 119 96 98 115 148 189 191 203 215 234 234 259 319 284 249 221 223 207 225 241 272 289 309 317 296 284 285 278 272 267 278 280 287 288 293 292 211 220 239
115 113 108 103 98 84 69 86 162 154 127 98 68 53 47 58 33 359 260 236 212 161 118 111 81 340 344 326 310 293 290 287 288 291 295 288 295 298 292 284 260 214 230
112 104 93 86 82 72 57 55 10 143 124 117 104 89 67 49 43 25 321 345 204 289 286 180 196 219 246 228 235 280 298 296 297 296 327 306 300 304 297 290 295 287 265